DAL1094 LXGB-LPMA

Flight info

Callsign DAL1094
Flight time 1h 52m
Altitude 38000
Route LINTO UN10 TNR UN726 BAMBA N726 ORTOP DCT NARTA/N0463F370 DCT RULET DCT RAKUN
Aircraft B738/M-SDE2E3FGHIRWXY/LB1

Departure

Time 2026-05-04 03:47
Airport Gibraltar Airport (LXGB)

Arrival

Time 2026-05-04 05:40
Airport Cristiano Ronaldo International Airport (LPMA)
Time Latitude Longitude Altitude Speed Heading
2026-05-04 03:17 36.15301 -5.34668 16 ft 0 kts 359°
2026-05-04 03:35 36.15297 -5.34668 16 ft 2 kts 359°
2026-05-04 03:35 36.15278 -5.34668 16 ft 3 kts 359°
2026-05-04 03:35 36.15257 -5.34667 16 ft 3 kts 355°
2026-05-04 03:36 36.15237 -5.34662 16 ft 2 kts 326°
2026-05-04 03:36 36.15230 -5.34651 17 ft 2 kts 277°
2026-05-04 03:36 36.15229 -5.34637 17 ft 2 kts 267°
2026-05-04 03:36 36.15229 -5.34631 17 ft 0 kts 266°
2026-05-04 03:41 36.15229 -5.34632 17 ft 1 kts 266°
2026-05-04 03:41 36.15226 -5.34648 17 ft 3 kts 253°
2026-05-04 03:42 36.15211 -5.34668 19 ft 3 kts 211°
2026-05-04 03:42 36.15182 -5.34675 19 ft 6 kts 187°
2026-05-04 03:42 36.15137 -5.34715 21 ft 10 kts 242°
2026-05-04 03:42 36.15126 -5.34812 20 ft 13 kts 268°
2026-05-04 03:43 36.15124 -5.34933 21 ft 15 kts 269°
2026-05-04 03:43 36.15121 -5.35074 21 ft 17 kts 267°
2026-05-04 03:43 36.15115 -5.35233 21 ft 20 kts 268°
2026-05-04 03:43 36.15109 -5.35409 20 ft 21 kts 267°
2026-05-04 03:44 36.15104 -5.35549 19 ft 16 kts 268°
2026-05-04 03:44 36.15099 -5.35682 20 ft 15 kts 268°
2026-05-04 03:44 36.15094 -5.35805 18 ft 13 kts 266°
2026-05-04 03:44 36.15063 -5.35898 18 ft 11 kts 253°
2026-05-04 03:45 36.15097 -5.35938 18 ft 6 kts 31°
2026-05-04 03:45 36.15100 -5.35918 18 ft 4 kts 116°
2026-05-04 03:45 36.15093 -5.35860 18 ft 8 kts 89°
2026-05-04 03:45 36.15093 -5.35843 18 ft 1 kts 87°
2026-05-04 03:46 36.15093 -5.35836 18 ft 0 kts 88°
2026-05-04 03:46 36.15093 -5.35835 18 ft 0 kts 88°
2026-05-04 03:46 36.15094 -5.35810 18 ft 21 kts 88°
2026-05-04 03:47 36.15114 -5.35251 21 ft 107 kts 88°
2026-05-04 03:47 36.15160 -5.34032 65 ft 170 kts 86°
2026-05-04 03:47 36.15230 -5.32632 1054 ft 157 kts 87°
2026-05-04 03:47 36.15276 -5.31246 1856 ft 167 kts 89°
2026-05-04 03:48 36.15263 -5.29720 2419 ft 189 kts 95°
2026-05-04 03:48 36.14777 -5.28077 2698 ft 221 kts 135°
2026-05-04 03:48 36.13403 -5.27153 2969 ft 236 kts 178°
2026-05-04 03:48 36.11794 -5.27545 3392 ft 246 kts 213°
2026-05-04 03:49 36.10491 -5.28937 4097 ft 251 kts 233°
2026-05-04 03:49 36.09407 -5.30680 5077 ft 254 kts 236°
2026-05-04 03:49 36.08727 -5.31855 5744 ft 254 kts 236°
2026-05-04 03:49 36.07707 -5.33651 6714 ft 256 kts 236°
2026-05-04 03:50 36.06675 -5.35465 7662 ft 259 kts 236°
2026-05-04 03:50 36.05277 -5.37901 8826 ft 265 kts 235°
2026-05-04 03:50 36.04198 -5.39767 9741 ft 268 kts 235°
2026-05-04 03:50 36.03105 -5.41650 10611 ft 271 kts 235°
2026-05-04 03:51 36.02357 -5.42932 11201 ft 273 kts 235°
2026-05-04 03:51 36.01247 -5.44829 12148 ft 273 kts 235°
2026-05-04 03:51 36.00130 -5.46734 13002 ft 275 kts 235°
2026-05-04 03:51 35.99003 -5.48655 13846 ft 278 kts 234°
2026-05-04 03:52 35.97864 -5.50591 14693 ft 280 kts 234°
2026-05-04 03:52 35.96715 -5.52543 15501 ft 282 kts 234°
2026-05-04 03:52 35.95555 -5.54512 16294 ft 284 kts 234°
2026-05-04 03:52 35.94394 -5.56482 17068 ft 286 kts 234°
2026-05-04 03:53 35.93222 -5.58470 17821 ft 288 kts 234°
2026-05-04 03:53 35.92038 -5.60475 18540 ft 290 kts 234°
2026-05-04 03:53 35.90842 -5.62500 19256 ft 293 kts 234°
2026-05-04 03:53 35.89633 -5.64543 19908 ft 296 kts 234°
2026-05-04 03:54 35.88412 -5.66608 20588 ft 299 kts 234°
2026-05-04 03:54 35.87152 -5.68737 21242 ft 302 kts 234°
2026-05-04 03:54 35.85908 -5.70838 21860 ft 305 kts 234°
2026-05-04 03:54 35.84650 -5.72962 22467 ft 307 kts 234°
2026-05-04 03:55 35.83386 -5.75096 23083 ft 309 kts 234°
2026-05-04 03:55 35.82117 -5.77236 23668 ft 311 kts 234°
2026-05-04 03:55 35.80830 -5.79404 24240 ft 314 kts 234°
2026-05-04 03:55 35.79538 -5.81580 24806 ft 316 kts 234°
2026-05-04 03:56 35.78237 -5.83770 25362 ft 317 kts 235°
2026-05-04 03:56 35.76935 -5.85960 25941 ft 318 kts 235°
2026-05-04 03:56 35.75628 -5.88155 26466 ft 319 kts 236°
2026-05-04 03:56 35.74584 -5.90566 26934 ft 321 kts 251°
2026-05-04 03:57 35.74133 -5.93267 27456 ft 325 kts 261°
2026-05-04 03:57 35.74150 -5.96071 27946 ft 333 kts 274°
2026-05-04 03:57 35.74658 -5.98887 28446 ft 337 kts 277°
2026-05-04 03:57 35.75225 -6.01698 28869 ft 339 kts 277°
2026-05-04 03:58 35.76352 -6.07343 29721 ft 342 kts 277°
2026-05-04 03:58 35.76910 -6.10200 30150 ft 342 kts 277°
2026-05-04 03:58 35.77462 -6.13057 30549 ft 344 kts 277°
2026-05-04 03:59 35.78022 -6.15979 30882 ft 347 kts 277°
2026-05-04 03:59 35.78567 -6.18841 31205 ft 349 kts 277°
2026-05-04 03:59 35.79123 -6.21753 31557 ft 351 kts 277°
2026-05-04 03:59 35.79681 -6.24688 31885 ft 353 kts 277°
2026-05-04 04:00 35.80241 -6.27637 32187 ft 355 kts 277°
2026-05-04 04:00 35.80795 -6.30609 32490 ft 356 kts 276°
2026-05-04 04:00 35.81318 -6.33598 32781 ft 358 kts 276°
2026-05-04 04:00 35.81839 -6.36640 33062 ft 360 kts 276°
2026-05-04 04:01 35.82359 -6.39664 33361 ft 361 kts 276°
2026-05-04 04:01 35.82883 -6.42694 33643 ft 362 kts 276°
2026-05-04 04:01 35.83412 -6.45737 33897 ft 365 kts 277°
2026-05-04 04:01 35.84011 -6.48787 34130 ft 368 kts 278°
2026-05-04 04:02 35.84654 -6.51803 34365 ft 370 kts 278°
2026-05-04 04:02 35.85331 -6.54913 34600 ft 372 kts 279°
2026-05-04 04:02 35.86000 -6.57989 34819 ft 373 kts 279°
2026-05-04 04:02 35.86670 -6.61096 35040 ft 375 kts 279°
2026-05-04 04:03 35.87335 -6.64207 35236 ft 377 kts 279°
2026-05-04 04:03 35.87994 -6.67313 35426 ft 379 kts 278°
2026-05-04 04:03 35.88658 -6.70464 35580 ft 381 kts 278°
2026-05-04 04:03 35.89334 -6.73677 35786 ft 383 kts 278°
2026-05-04 04:04 35.90002 -6.76862 36004 ft 384 kts 278°
2026-05-04 04:04 35.90662 -6.80015 36210 ft 385 kts 279°
2026-05-04 04:04 35.91339 -6.83248 36399 ft 386 kts 279°
2026-05-04 04:04 35.92000 -6.86418 36606 ft 386 kts 278°
2026-05-04 04:05 35.92668 -6.89627 36834 ft 386 kts 278°
2026-05-04 04:05 35.93338 -6.92839 37047 ft 386 kts 278°
2026-05-04 04:05 35.94695 -6.99377 37025 ft 394 kts 278°
2026-05-04 04:06 35.96059 -7.05959 37024 ft 397 kts 279°
2026-05-04 04:06 35.97423 -7.12563 37030 ft 397 kts 278°
2026-05-04 04:07 35.98786 -7.19174 37027 ft 397 kts 279°
2026-05-04 04:07 36.00154 -7.25837 37029 ft 397 kts 279°
2026-05-04 04:08 36.01504 -7.32430 37032 ft 396 kts 278°
2026-05-04 04:08 36.02712 -7.39034 37025 ft 391 kts 272°
2026-05-04 04:09 36.02899 -7.45692 37031 ft 387 kts 268°
2026-05-04 04:09 36.03056 -7.52347 37038 ft 387 kts 268°
2026-05-04 04:10 36.03232 -7.58984 37037 ft 387 kts 268°
2026-05-04 04:10 36.03405 -7.65654 37034 ft 388 kts 268°
2026-05-04 04:11 36.03571 -7.72305 37035 ft 388 kts 268°
2026-05-04 04:11 36.03732 -7.78970 37040 ft 388 kts 268°
2026-05-04 04:12 36.03888 -7.85635 37036 ft 388 kts 268°
2026-05-04 04:12 36.04040 -7.92296 37034 ft 388 kts 268°
2026-05-04 04:13 36.04189 -7.98950 37035 ft 388 kts 268°
2026-05-04 04:13 36.04333 -8.05610 37045 ft 387 kts 268°
2026-05-04 04:14 36.04475 -8.12274 37045 ft 388 kts 268°
2026-05-04 04:14 36.04613 -8.18929 37049 ft 388 kts 268°
2026-05-04 04:15 36.04747 -8.25583 37050 ft 388 kts 268°
2026-05-04 04:15 36.04879 -8.32262 37049 ft 388 kts 268°
2026-05-04 04:16 36.05007 -8.38919 37051 ft 388 kts 268°
2026-05-04 04:16 36.05129 -8.45592 37046 ft 388 kts 268°
2026-05-04 04:17 36.05248 -8.52272 37050 ft 389 kts 268°
2026-05-04 04:17 36.05363 -8.58943 37054 ft 389 kts 268°
2026-05-04 04:18 36.05476 -8.65676 37055 ft 389 kts 268°
2026-05-04 04:18 36.05584 -8.72349 37056 ft 389 kts 268°
2026-05-04 04:19 36.05689 -8.79032 37057 ft 389 kts 268°
2026-05-04 04:19 36.05773 -8.84594 37054 ft 389 kts 268°
2026-05-04 04:20 36.05874 -8.91276 37055 ft 389 kts 268°
2026-05-04 04:20 36.05968 -8.97972 37058 ft 390 kts 268°
2026-05-04 04:21 36.06058 -9.04668 37058 ft 390 kts 268°
2026-05-04 04:21 36.06145 -9.11368 37058 ft 390 kts 268°
2026-05-04 04:22 36.06228 -9.18061 37057 ft 390 kts 268°
2026-05-04 04:22 36.06307 -9.24771 37055 ft 390 kts 268°
2026-05-04 04:23 36.06383 -9.31464 37054 ft 390 kts 268°
2026-05-04 04:23 36.06456 -9.38182 37055 ft 390 kts 268°
2026-05-04 04:24 36.06523 -9.44930 37055 ft 390 kts 268°
2026-05-04 04:24 36.06588 -9.51649 37057 ft 391 kts 268°
2026-05-04 04:25 36.06650 -9.58380 37055 ft 391 kts 268°
2026-05-04 04:25 36.06708 -9.65098 37057 ft 391 kts 268°
2026-05-04 04:26 36.06760 -9.71812 37058 ft 391 kts 268°
2026-05-04 04:26 36.06811 -9.78539 37055 ft 391 kts 268°
2026-05-04 04:27 36.06858 -9.85260 37056 ft 391 kts 268°
2026-05-04 04:27 36.06900 -9.91981 37055 ft 391 kts 268°
2026-05-04 04:28 36.06938 -9.98715 37060 ft 391 kts 268°
2026-05-04 04:28 36.06973 -10.05452 37064 ft 391 kts 268°
2026-05-04 04:29 36.07005 -10.12183 37066 ft 391 kts 268°
2026-05-04 04:29 36.07031 -10.18919 37063 ft 392 kts 268°
2026-05-04 04:30 36.07055 -10.25650 37065 ft 392 kts 267°
2026-05-04 04:30 36.07075 -10.32341 37066 ft 392 kts 268°
2026-05-04 04:31 36.07091 -10.39063 37063 ft 391 kts 268°
2026-05-04 04:31 36.07103 -10.45831 37065 ft 392 kts 268°
2026-05-04 04:32 36.07112 -10.52527 37063 ft 391 kts 267°
2026-05-04 04:32 36.07117 -10.59241 37063 ft 391 kts 268°
2026-05-04 04:33 36.07118 -10.66017 37063 ft 391 kts 268°
2026-05-04 04:33 36.07115 -10.72726 37065 ft 391 kts 268°
2026-05-04 04:34 36.07108 -10.79452 37067 ft 391 kts 268°
2026-05-04 04:34 36.07098 -10.86128 37062 ft 391 kts 268°
2026-05-04 04:35 36.07084 -10.92849 37063 ft 391 kts 268°
2026-05-04 04:35 36.07066 -10.99608 37064 ft 391 kts 268°
2026-05-04 04:36 36.07046 -11.06322 37062 ft 391 kts 268°
2026-05-04 04:36 36.07021 -11.13049 37066 ft 391 kts 268°
2026-05-04 04:37 36.06959 -11.26484 37063 ft 391 kts 268°
2026-05-04 04:38 36.06922 -11.33157 37068 ft 390 kts 268°
2026-05-04 04:38 36.06882 -11.39863 37075 ft 390 kts 268°
2026-05-04 04:39 36.06839 -11.46565 37072 ft 390 kts 268°
2026-05-04 04:39 36.06791 -11.53275 37076 ft 390 kts 268°
2026-05-04 04:40 36.06740 -11.59974 37072 ft 390 kts 268°
2026-05-04 04:40 36.06685 -11.66676 37072 ft 389 kts 267°
2026-05-04 04:41 36.06627 -11.73369 37076 ft 389 kts 267°
2026-05-04 04:41 36.06564 -11.80062 37075 ft 389 kts 267°
2026-05-04 04:42 36.06498 -11.86750 37074 ft 389 kts 267°
2026-05-04 04:42 36.06428 -11.93445 37074 ft 389 kts 267°
2026-05-04 04:43 36.06354 -12.00138 37074 ft 389 kts 267°
2026-05-04 04:43 36.06277 -12.06821 37074 ft 389 kts 267°
2026-05-04 04:44 36.06196 -12.13522 37074 ft 389 kts 267°
2026-05-04 04:44 36.06111 -12.20210 37071 ft 389 kts 267°
2026-05-04 04:45 36.06023 -12.26898 37063 ft 389 kts 267°
2026-05-04 04:47 36.05666 -12.50385 37061 ft 390 kts 264°
2026-05-04 04:47 36.05125 -12.53662 37072 ft 389 kts 252°
2026-05-04 04:47 36.04110 -12.56751 37065 ft 391 kts 246°
2026-05-04 04:48 36.00934 -12.62231 37078 ft 397 kts 231°
2026-05-04 04:49 35.91542 -12.74759 37068 ft 396 kts 232°
2026-05-04 04:49 35.87789 -12.79803 37071 ft 396 kts 232°
2026-05-04 04:50 35.84087 -12.84776 37076 ft 396 kts 232°
2026-05-04 04:50 35.80363 -12.89772 37072 ft 396 kts 232°
2026-05-04 04:51 35.76636 -12.94764 37072 ft 396 kts 232°
2026-05-04 04:51 35.72880 -12.99785 37078 ft 396 kts 232°
2026-05-04 04:52 35.69147 -13.04772 37074 ft 397 kts 232°
2026-05-04 04:52 35.65406 -13.09760 37072 ft 396 kts 232°
2026-05-04 04:53 35.61659 -13.14748 37076 ft 397 kts 232°
2026-05-04 04:53 35.57917 -13.19724 37073 ft 397 kts 232°
2026-05-04 04:54 35.54191 -13.24671 37074 ft 397 kts 232°
2026-05-04 04:54 35.51052 -13.28833 37072 ft 397 kts 232°
2026-05-04 04:55 35.46686 -13.34610 37073 ft 397 kts 232°
2026-05-04 04:55 35.43537 -13.38770 37075 ft 397 kts 232°
2026-05-04 04:56 35.39773 -13.43740 37074 ft 397 kts 232°
2026-05-04 04:56 35.36010 -13.48701 37074 ft 397 kts 232°
2026-05-04 04:57 35.32250 -13.53651 37074 ft 397 kts 232°
2026-05-04 04:57 35.28484 -13.58599 37073 ft 397 kts 232°
2026-05-04 04:58 35.24710 -13.63550 37074 ft 397 kts 232°
2026-05-04 04:58 35.20943 -13.68485 37073 ft 397 kts 231°
2026-05-04 04:59 35.17168 -13.73424 37074 ft 397 kts 232°
2026-05-04 04:59 35.13372 -13.78383 37072 ft 397 kts 231°
2026-05-04 05:00 35.09594 -13.83314 37074 ft 397 kts 231°
2026-05-04 05:01 35.03929 -13.90690 37076 ft 397 kts 231°
2026-05-04 05:01 35.00150 -13.95602 37074 ft 397 kts 231°
2026-05-04 05:02 34.96377 -14.00499 37074 ft 397 kts 231°
2026-05-04 05:02 34.92596 -14.05400 37076 ft 397 kts 231°
2026-05-04 05:03 34.88802 -14.10309 37074 ft 398 kts 231°
2026-05-04 05:04 34.81204 -14.20124 37076 ft 398 kts 231°
2026-05-04 05:04 34.77410 -14.25011 37074 ft 398 kts 231°
2026-05-04 05:06 34.62182 -14.44564 37075 ft 397 kts 231°
2026-05-04 05:07 34.58381 -14.49428 37074 ft 397 kts 231°
2026-05-04 05:07 34.54579 -14.54286 37074 ft 397 kts 231°
2026-05-04 05:09 34.37463 -14.76071 37083 ft 397 kts 231°
2026-05-04 05:10 34.33645 -14.80913 37083 ft 397 kts 231°
2026-05-04 05:10 34.29829 -14.85745 37083 ft 397 kts 231°
2026-05-04 05:11 34.26007 -14.90578 37083 ft 398 kts 231°
2026-05-04 05:11 34.22173 -14.95410 37081 ft 398 kts 230°
2026-05-04 05:12 34.18308 -15.00268 37082 ft 398 kts 230°
2026-05-04 05:12 34.14472 -15.05084 37084 ft 399 kts 230°
2026-05-04 05:13 34.10628 -15.09905 37083 ft 399 kts 230°
2026-05-04 05:13 34.06776 -15.14730 37083 ft 399 kts 230°
2026-05-04 05:14 34.02930 -15.19543 37080 ft 399 kts 230°
2026-05-04 05:14 33.99046 -15.24396 37096 ft 399 kts 230°
2026-05-04 05:15 33.95198 -15.29197 37080 ft 400 kts 230°
2026-05-04 05:15 33.91324 -15.34023 37075 ft 400 kts 230°
2026-05-04 05:16 33.87455 -15.38836 37072 ft 400 kts 230°
2026-05-04 05:16 33.83585 -15.43642 37073 ft 399 kts 230°
2026-05-04 05:17 33.79705 -15.48458 36613 ft 405 kts 230°
2026-05-04 05:17 33.77730 -15.50906 36083 ft 399 kts 230°
2026-05-04 05:17 33.75788 -15.53310 35370 ft 400 kts 230°
2026-05-04 05:18 33.73875 -15.55678 34649 ft 401 kts 230°
2026-05-04 05:18 33.71926 -15.58089 33894 ft 403 kts 230°
2026-05-04 05:18 33.69972 -15.60507 33112 ft 405 kts 230°
2026-05-04 05:18 33.67981 -15.62967 32301 ft 407 kts 230°
2026-05-04 05:19 33.66003 -15.65409 31475 ft 409 kts 230°
2026-05-04 05:19 33.64009 -15.67868 30617 ft 411 kts 230°
2026-05-04 05:19 33.62008 -15.70334 29724 ft 414 kts 230°
2026-05-04 05:19 33.59997 -15.72812 28773 ft 416 kts 230°
2026-05-04 05:20 33.57974 -15.75303 27777 ft 419 kts 229°
2026-05-04 05:20 33.55928 -15.77819 26718 ft 422 kts 229°
2026-05-04 05:20 33.53852 -15.80330 25503 ft 428 kts 228°
2026-05-04 05:20 33.51710 -15.82853 24439 ft 432 kts 227°
2026-05-04 05:21 33.49568 -15.85346 23601 ft 427 kts 227°
2026-05-04 05:21 33.47443 -15.87813 22837 ft 422 kts 227°
2026-05-04 05:21 33.45352 -15.90243 22082 ft 417 kts 227°
2026-05-04 05:21 33.43289 -15.92647 21325 ft 412 kts 227°
2026-05-04 05:22 33.41249 -15.95028 20594 ft 408 kts 227°
2026-05-04 05:22 33.39225 -15.97392 19845 ft 403 kts 227°
2026-05-04 05:22 33.37231 -15.99721 19116 ft 400 kts 227°
2026-05-04 05:22 33.35248 -16.02038 18394 ft 396 kts 227°
2026-05-04 05:23 33.33286 -16.04328 17668 ft 393 kts 227°
2026-05-04 05:23 33.31353 -16.06583 16954 ft 390 kts 227°
2026-05-04 05:23 33.29414 -16.08842 16328 ft 380 kts 227°
2026-05-04 05:23 33.27571 -16.10985 15850 ft 361 kts 227°
2026-05-04 05:24 33.26372 -16.12378 15570 ft 349 kts 227°
2026-05-04 05:24 33.24135 -16.14977 15055 ft 329 kts 227°
2026-05-04 05:24 33.23040 -16.16249 14799 ft 320 kts 227°
2026-05-04 05:24 33.21477 -16.18064 14446 ft 307 kts 227°
2026-05-04 05:25 33.19978 -16.19806 14102 ft 296 kts 227°
2026-05-04 05:25 33.18530 -16.21488 13773 ft 286 kts 227°
2026-05-04 05:25 33.17128 -16.23116 13453 ft 276 kts 227°
2026-05-04 05:25 33.15775 -16.24686 13148 ft 268 kts 227°
2026-05-04 05:26 33.14454 -16.26218 12840 ft 260 kts 227°
2026-05-04 05:26 33.13170 -16.27707 12557 ft 258 kts 227°
2026-05-04 05:26 33.11871 -16.29216 12277 ft 263 kts 227°
2026-05-04 05:26 33.10545 -16.30757 11972 ft 270 kts 227°
2026-05-04 05:27 33.09168 -16.32351 11655 ft 275 kts 227°
2026-05-04 05:28 32.99613 -16.43390 9407 ft 271 kts 226°
2026-05-04 05:29 32.98260 -16.44951 9085 ft 270 kts 226°
2026-05-04 05:29 32.96911 -16.46507 8770 ft 270 kts 225°
2026-05-04 05:29 32.95563 -16.48059 8447 ft 269 kts 225°
2026-05-04 05:29 32.94217 -16.49609 8137 ft 269 kts 225°
2026-05-04 05:31 32.84892 -16.59680 6172 ft 239 kts 223°
2026-05-04 05:31 32.83662 -16.60991 5924 ft 236 kts 223°
2026-05-04 05:32 32.82428 -16.62265 5672 ft 235 kts 218°
2026-05-04 05:32 32.81060 -16.63279 5415 ft 235 kts 207°
2026-05-04 05:32 32.79521 -16.64001 5135 ft 233 kts 198°
2026-05-04 05:33 32.76602 -16.65151 4619 ft 211 kts 199°
2026-05-04 05:33 32.75243 -16.65708 4389 ft 203 kts 199°
2026-05-04 05:33 32.73925 -16.66246 4191 ft 197 kts 199°
2026-05-04 05:33 32.72649 -16.66767 4106 ft 193 kts 199°
2026-05-04 05:34 32.71372 -16.67287 4025 ft 194 kts 199°
2026-05-04 05:34 32.70087 -16.67809 3944 ft 197 kts 199°
2026-05-04 05:34 32.68782 -16.68339 3857 ft 198 kts 199°
2026-05-04 05:34 32.67471 -16.68870 3779 ft 200 kts 199°
2026-05-04 05:35 32.66141 -16.69408 3556 ft 201 kts 199°
2026-05-04 05:35 32.64839 -16.69936 3360 ft 194 kts 199°
2026-05-04 05:35 32.63593 -16.70466 3160 ft 186 kts 203°
2026-05-04 05:35 32.62524 -16.71221 2935 ft 175 kts 220°
2026-05-04 05:36 32.61738 -16.72270 2800 ft 160 kts 237°
2026-05-04 05:36 32.61250 -16.73399 2600 ft 149 kts 248°
2026-05-04 05:36 32.60954 -16.74545 2445 ft 146 kts 258°
2026-05-04 05:36 32.60843 -16.75771 2269 ft 149 kts 269°
2026-05-04 05:37 32.60942 -16.76979 2092 ft 147 kts 282°
2026-05-04 05:37 32.61266 -16.78144 1918 ft 151 kts 296°
2026-05-04 05:37 32.61855 -16.79148 1699 ft 145 kts 314°
2026-05-04 05:38 32.63571 -16.80271 1289 ft 142 kts 348°
2026-05-04 05:38 32.64568 -16.80372 1116 ft 144 kts
2026-05-04 05:38 32.65568 -16.80371 938 ft 143 kts
2026-05-04 05:38 32.66562 -16.80311 770 ft 142 kts
2026-05-04 05:39 32.67542 -16.80124 558 ft 143 kts 29°
2026-05-04 05:39 32.68907 -16.78450 237 ft 143 kts 44°
2026-05-04 05:39 32.69621 -16.77628 178 ft 138 kts 44°
2026-05-04 05:40 32.70452 -16.76672 178 ft 21 kts 43°
2026-05-04 05:40 32.70474 -16.76645 179 ft 9 kts 47°
2026-05-04 05:40 32.70531 -16.76577 180 ft 13 kts 44°
2026-05-04 05:41 32.70607 -16.76505 179 ft 17 kts 24°
2026-05-04 05:41 32.70674 -16.76448 178 ft 6 kts 102°
2026-05-04 05:41 32.70642 -16.76437 177 ft 6 kts 212°
2026-05-04 05:41 32.70572 -16.76528 180 ft 22 kts 227°
2026-05-04 05:42 32.70472 -16.76653 179 ft 21 kts 226°
2026-05-04 05:42 32.70357 -16.76788 178 ft 21 kts 224°
2026-05-04 05:42 32.70253 -16.76913 175 ft 24 kts 224°
2026-05-04 05:42 32.70134 -16.77046 175 ft 19 kts 224°
2026-05-04 05:43 32.70046 -16.77148 175 ft 15 kts 221°
2026-05-04 05:43 32.69935 -16.77181 173 ft 9 kts 176°
2026-05-04 05:43 32.69918 -16.77180 175 ft 0 kts 175°
2026-05-04 05:45 32.69596 -16.77478 174 ft 11 kts 226°
2026-05-04 05:45 32.69552 -16.77477 174 ft 7 kts 142°
2026-05-04 05:47 32.69518 -16.77442 175 ft 0 kts 139°